FW6366 Weather Reports


Display with metric or nautical units.
time (UTC)temp
F
wind
direction
speed
MPH
gust
MPH
rain 1hr
in
rain 24hr
in
rain mn
in
humidity
%
barometer
mb
20260901132058 62 0 0.0 1.0 0.00 0.28 0.28 95 1017.6
20260901131612 62 0 0.0 2.0 0.00 0.28 0.28 95 1017.7
20260901131058 62 44 0.0 2.0 0.01 0.28 0.28 95 1017.8
20260901130558 62 165 0.0 1.0 0.02 0.28 0.28 96 1017.8
20260901130108 62 0 0.0 2.0 0.02 0.28 0.28 96 1017.9
20260901125558 62 0 0.0 2.0 0.02 0.28 0.28 95 1017.9
20260901125058 62 0 0.0 3.0 0.03 0.28 0.28 96 1017.9
20260901124611 62 255 0.0 3.0 0.03 0.28 0.28 96 1017.8
20260901124101 62 0 0.0 1.0 0.05 0.28 0.28 95 1017.9
20260901123601 62 0 0.0 2.0 0.06 0.28 0.28 95 1017.8
20260901123102 62 0 0.0 3.0 0.07 0.28 0.28 95 1018.0
20260901122559 62 0 0.0 3.0 0.08 0.28 0.28 95 1017.9
20260901122101 62 351 0.0 2.0 0.09 0.28 0.28 95 1017.9
20260901121613 62 18 0.0 2.0 0.09 0.28 0.28 95 1018.1
20260901121058 62 317 0.0 2.0 0.09 0.27 0.27 95 1018.0
20260901120558 62 0 0.0 2.0 0.08 0.26 0.26 95 1017.9
20260901120124 62 296 0.0 1.0 0.10 0.26 0.26 95 1018.1
20260901115559 62 0 0.0 1.0 0.11 0.26 0.26 95 1018.1
20260901115103 62 0 0.0 2.0 0.11 0.25 0.25 95 1018.2
20260901114611 62 0 0.0 2.0 0.12 0.25 0.25 95 1018.1
20260901114058 62 70 0.0 1.0 0.11 0.23 0.23 95 1018.1
20260901113558 62 332 0.0 1.0 0.11 0.22 0.22 95 1017.9
20260901113102 62 0 0.0 4.0 0.11 0.21 0.21 95 1017.8
20260901112601 62 0 1.0 4.0 0.11 0.20 0.20 95 1017.9
20260901112101 62 164 1.0 4.0 0.12 0.19 0.19 95 1017.9
20260901111616 62 16 0.0 3.0 0.13 0.19 0.19 95 1017.7
20260901111057 62 0 0.0 3.0 0.14 0.18 0.18 95 1017.8
20260901110557 62 0 0.0 3.0 0.15 0.18 0.18 95 1017.7
20260901110106 62 0 0.0 1.0 0.14 0.16 0.16 95 1017.3
20260901105559 62 0 0.0 1.0 0.14 0.15 0.15 95 1017.6
20260901105100 62 0 0.0 1.0 0.14 0.14 0.14 95 1017.6
20260901104605 62 0 0.0 1.0 0.13 0.13 0.13 95 1017.8
20260901104059 62 0 0.0 1.0 0.12 0.12 0.12 95 1018.0
20260901103558 62 0 0.0 1.0 0.11 0.11 0.11 95 1017.9
20260901103124 62 0 0.0 1.0 0.10 0.10 0.10 95 1018.0
20260901102558 62 0 0.0 1.0 0.09 0.09 0.09 95 1018.0
20260901102100 63 0 0.0 1.0 0.07 0.07 0.07 95 1018.0
20260901101618 63 0 0.0 1.0 0.06 0.06 0.06 95 1018.0
20260901101100 63 0 0.0 2.0 0.04 0.04 0.04 95 1018.2
20260901100601 63 0 0.0 2.0 0.03 0.03 0.03 95 1018.2
20260901100106 63 0 0.0 2.0 0.02 0.02 0.02 95 1017.9
20260901095558 63 0 0.0 2.0 0.01 0.01 0.01 95 1017.7
20260901095101 63 0 0.0 1.0 0.00 0.00 0.00 95 1017.6
20260901094605 62 276 0.0 1.0 0.00 0.00 0.00 95 1017.5
20260901094100 62 0 0.0 1.0 0.00 0.00 0.00 95 1017.4
20260901093604 63 0 0.0 2.0 0.00 0.00 0.00 95 1017.4
20260901093128 63 0 0.0 2.0 0.00 0.00 0.00 95 1017.3
20260901092600 62 305 0.0 2.0 0.00 0.00 0.00 95 1017.2
20260901092100 63 0 0.0 2.0 0.00 0.00 0.00 95 1017.3
20260901091609 63 155 0.0 2.0 0.00 0.00 0.00 95 1017.3
20260901091100 63 344 0.0 2.0 0.00 0.00 0.00 95 1017.2
20260901090601 63 302 0.0 1.0 0.00 0.00 0.00 95 1017.2
20260901085602 63 0 0.0 2.0 0.00 0.00 0.00 95 1017.4
20260901085059 63 0 0.0 3.0 0.00 0.00 0.00 95 1017.5
20260901084601 63 0 0.0 3.0 0.00 0.00 0.00 95 1017.5
20260901084059 63 244 2.0 3.0 0.00 0.00 0.00 95 1017.6
20260901083559 63 253 0.0 1.0 0.00 0.00 0.00 95 1017.6
20260901083103 63 0 0.0 2.0 0.00 0.00 0.00 95 1017.6
20260901082601 63 0 0.0 2.0 0.00 0.00 0.00 95 1017.9
20260901082058 63 1 0.0 1.0 0.00 0.00 0.00 95 1017.7
20260901081615 63 0 0.0 1.0 0.00 0.00 0.00 95 1017.8
20260901081103 63 0 0.0 1.0 0.00 0.00 0.00 95 1017.8
20260901080601 63 360 0.0 1.0 0.00 0.00 0.00 95 1017.9
20260901080105 63 0 0.0 0.0 0.00 0.00 0.00 95 1017.9
20260901075603 63 0 0.0 1.0 0.00 0.00 0.00 95 1017.9
20260901075100 63 0 0.0 1.0 0.00 0.00 0.00 95 1017.9
20260901074604 63 0 0.0 1.0 0.00 0.00 0.00 94 1017.9
20260901074059 63 0 0.0 1.0 0.00 0.00 0.00 94 1017.7
20260901073559 63 0 0.0 1.0 0.00 0.00 0.00 95 1017.7
20260901073104 63 0 0.0 0.0 0.00 0.00 0.00 94 1017.8
20260901072602 63 0 0.0 1.0 0.00 0.00 0.00 94 1017.8
20260901072059 63 0 0.0 1.0 0.00 0.00 0.00 94 1017.6
20260901071607 63 0 0.0 1.0 0.00 0.00 0.00 94 1017.8
20260901071059 63 0 0.0 1.0 0.00 0.00 0.00 94 1017.8
20260901070558 63 0 0.0 0.0 0.00 0.00 0.00 94 1017.8
20260901070105 63 0 0.0 0.0 0.00 0.00 0.00 94 1017.8
20260901065600 63 0 0.0 0.0 0.00 0.00 0.00 94 1017.8
20260901065100 63 0 0.0 0.0 0.00 0.00 0.00 94 1018.0
20260901064605 63 0 0.0 0.0 0.00 0.00 0.00 94 1017.9
20260901064100 63 0 0.0 0.0 0.00 0.00 0.00 94 1018.0
20260901063559 63 0 0.0 0.0 0.00 0.00 0.00 94 1018.2
20260901063102 63 0 0.0 1.0 0.00 0.00 0.00 94 1018.2
20260901062558 63 0 0.0 1.0 0.00 0.00 0.00 94 1018.4
20260901062100 63 0 0.0 1.0 0.00 0.00 0.00 94 1018.4
20260901061608 63 0 0.0 1.0 0.00 0.00 0.00 94 1018.5
20260901061100 63 0 0.0 1.0 0.00 0.00 0.00 94 1018.4
20260901060601 63 0 0.0 1.0 0.00 0.00 0.00 94 1018.4
20260901060108 63 0 0.0 0.0 0.00 0.00 0.00 94 1018.3
20260901055601 63 0 0.0 0.0 0.00 0.00 0.00 94 1018.4
20260901055059 63 0 0.0 0.0 0.00 0.00 0.00 94 1018.5
20260901054604 63 0 0.0 0.0 0.00 0.00 0.00 94 1018.5
20260901054059 63 0 0.0 0.0 0.00 0.00 0.00 94 1018.4
20260901053602 63 0 0.0 0.0 0.00 0.00 0.00 94 1018.6
20260901053123 63 0 0.0 0.0 0.00 0.00 0.00 94 1018.8
20260901052601 63 0 0.0 2.0 0.00 0.00 0.00 94 1018.8
20260901052059 63 0 0.0 2.0 0.00 0.00 0.00 93 1018.8
20260901051605 63 0 0.0 2.0 0.00 0.00 0.00 93 1018.8
20260901051059 63 0 0.0 0.0 0.00 0.00 0.00 93 1018.9
20260901050602 63 0 0.0 0.0 0.00 0.00 0.00 93 1019.0
20260901050117 63 0 0.0 0.0 0.00 0.00 0.00 93 1018.9
20260901045600 63 0 0.0 1.0 0.00 0.00 0.00 93 1019.0
20260901045102 63 0 0.0 1.0 0.00 0.00 0.00 93 1019.1
20260901044619 63 321 0.0 1.0 0.00 0.00 0.00 93 1019.1
20260901044101 63 0 0.0 1.0 0.00 0.00 0.00 93 1019.0
20260901043559 63 0 0.0 1.0 0.00 0.00 0.00 93 1019.0
20260901043136 63 144 0.0 0.0 0.00 0.00 0.00 93 1018.9
20260901042600 63 0 0.0 1.0 0.00 0.00 0.00 93 1018.8
20260901042101 63 0 0.0 1.0 0.00 0.00 0.00 93 1018.8
20260901041611 63 346 0.0 1.0 0.00 0.00 0.00 93 1018.9
20260901041100 63 0 0.0 1.0 0.00 0.00 0.00 93 1018.7
20260901040559 63 0 0.0 0.0 0.00 0.00 0.00 93 1018.6
20260901040124 63 0 0.0 1.0 0.00 0.00 0.00 93 1018.8
20260901035559 64 0 0.0 1.0 0.00 0.00 0.00 93 1018.7
20260901035059 63 360 0.0 1.0 0.00 0.00 0.00 93 1018.7
20260901034607 63 321 0.0 1.0 0.00 0.00 0.00 93 1018.5
20260901034058 64 0 0.0 1.0 0.00 0.00 0.00 93 1018.5
20260901033600 64 0 0.0 1.0 0.00 0.00 0.00 93 1018.6
20260901033109 64 0 0.0 0.0 0.00 0.00 0.00 93 1018.6
20260901032600 64 0 0.0 2.0 0.00 0.00 0.00 93 1018.8
20260901032059 64 0 0.0 2.0 0.00 0.00 0.00 93 1018.8
20260901031603 64 0 0.0 2.0 0.00 0.00 0.00 93 1019.1
20260901031059 64 0 0.0 1.0 0.00 0.00 0.00 93 1018.7
20260901030600 64 0 0.0 2.0 0.00 0.00 0.00 93 1018.7
20260901030103 64 0 0.0 2.0 0.00 0.00 0.00 92 1018.8
20260901025559 64 0 0.0 2.0 0.00 0.00 0.00 92 1018.8
20260901025059 64 0 0.0 2.0 0.00 0.00 0.00 92 1018.8
20260901024608 64 49 0.0 2.0 0.00 0.00 0.00 92 1018.8
20260901024100 64 8 0.0 1.0 0.00 0.00 0.00 92 1018.8
20260901023558 64 0 0.0 1.0 0.00 0.00 0.00 92 1018.8
20260901023103 64 0 0.0 2.0 0.00 0.00 0.00 92 1018.9
20260901022559 64 0 0.0 2.0 0.00 0.00 0.00 92 1018.8
20260901022100 64 335 0.0 1.0 0.00 0.00 0.00 92 1018.9
20260901021609 64 0 0.0 0.0 0.00 0.00 0.00 92 1018.6
20260901021100 64 0 0.0 0.0 0.00 0.00 0.00 92 1018.8
20260901020600 64 0 0.0 0.0 0.00 0.00 0.00 92 1018.7
20260901020109 64 0 0.0 0.0 0.00 0.00 0.00 92 1018.7
20260901015559 64 0 0.0 2.0 0.00 0.00 0.00 92 1018.8
20260901015101 64 0 0.0 2.0 0.00 0.00 0.00 91 1018.8
20260901014606 64 0 0.0 2.0 0.00 0.00 0.00 91 1018.7
20260901014059 64 0 0.0 1.0 0.00 0.00 0.00 91 1018.8
20260901013600 64 0 0.0 1.0 0.00 0.00 0.00 91 1018.7
20260901013103 64 0 0.0 1.0 0.00 0.00 0.00 91 1018.7
20260901012558 64 0 0.0 1.0 0.00 0.00 0.00 91 1018.7
20260901012058 64 0 0.0 0.0 0.00 0.00 0.00 91 1018.7
20260901011603 64 0 0.0 1.0 0.00 0.00 0.00 91 1018.8
20260901011100 64 0 0.0 1.0 0.00 0.00 0.00 91 1018.7
20260901010603 64 0 0.0 1.0 0.00 0.00 0.00 91 1018.7
20260901010104 64 0 0.0 0.0 0.00 0.00 0.00 91 1018.7
20260901005559 64 0 0.0 0.0 0.00 0.00 0.00 91 1018.7
20260901005058 64 0 0.0 0.0 0.00 0.00 0.00 91 1018.7
20260901004605 64 0 0.0 0.0 0.00 0.00 0.00 90 1018.7
20260901004058 64 0 0.0 0.0 0.00 0.00 0.00 90 1018.7
20260901003602 64 0 0.0 0.0 0.00 0.00 0.00 89 1018.8
20260901003103 64 0 0.0 0.0 0.00 0.00 0.00 89 1018.7
20260901002559 65 0 0.0 1.0 0.00 0.00 0.00 88 1018.7
20260901002059 65 0 0.0 1.0 0.00 0.00 0.00 88 1018.7
20260901001602 65 0 0.0 1.0 0.00 0.00 0.00 88 1018.8
20260901001059 65 0 0.0 1.0 0.00 0.00 0.00 87 1018.7
20260901000559 65 0 0.0 1.0 0.00 0.00 0.00 87 1018.7
20260901000108 66 0 0.0 1.0 0.00 0.00 0.00 88 1018.7
20260831235559 66 0 0.0 1.0 0.00 0.00 0.00 88 1018.6
20260831235058 66 0 0.0 1.0 0.00 0.00 0.00 88 1018.6
20260831234605 66 0 0.0 1.0 0.00 0.00 0.00 88 1018.5
20260831234100 66 0 0.0 1.0 0.00 0.00 0.00 87 1018.4
20260831233559 67 0 0.0 1.0 0.00 0.00 0.00 86 1018.5
20260831233106 67 296 0.0 1.0 0.00 0.00 0.00 86 1018.5
20260831232559 67 0 0.0 1.0 0.00 0.00 0.00 86 1018.6
20260831232059 67 296 0.0 2.0 0.00 0.00 0.00 87 1018.6
20260831231605 67 0 0.0 2.0 0.00 0.00 0.00 87 1018.7
20260831231103 67 296 0.0 2.0 0.00 0.00 0.00 86 1018.6
20260831230559 67 0 0.0 2.0 0.00 0.00 0.00 86 1018.7
20260831230106 67 295 0.0 2.0 0.00 0.00 0.00 86 1018.9
20260831225559 68 304 0.0 2.0 0.00 0.00 0.00 86 1018.9
20260831225058 68 0 0.0 2.0 0.00 0.00 0.00 86 1018.9
20260831224603 68 0 0.0 2.0 0.00 0.00 0.00 86 1019.0
20260831224059 68 290 0.0 2.0 0.00 0.00 0.00 85 1018.9
20260831223559 68 0 0.0 2.0 0.00 0.00 0.00 85 1018.9
20260831223105 68 0 0.0 2.0 0.00 0.00 0.00 85 1019.0
20260831222559 68 0 0.0 2.0 0.00 0.00 0.00 85 1019.0
20260831222058 68 0 0.0 2.0 0.00 0.00 0.00 86 1019.0
20260831221608 68 302 0.0 3.0 0.00 0.00 0.00 86 1019.0
20260831221059 68 303 1.0 3.0 0.00 0.00 0.00 85 1019.1
20260831220559 69 298 1.0 4.0 0.00 0.00 0.00 84 1019.1
20260831220129 69 302 1.0 4.0 0.00 0.00 0.00 84 1018.9
20260831215603 69 300 1.0 3.0 0.00 0.00 0.00 84 1018.9
20260831215059 69 300 2.0 3.0 0.00 0.00 0.00 84 1018.9
20260831214602 69 299 1.0 3.0 0.00 0.00 0.00 84 1019.0
20260831214059 69 310 1.0 4.0 0.00 0.00 0.00 83 1019.0
20260831213559 69 296 1.0 4.0 0.00 0.00 0.00 82 1018.8
20260831213108 69 309 2.0 4.0 0.00 0.00 0.00 81 1018.8
20260831212559 69 306 2.0 3.0 0.00 0.00 0.00 81 1018.8
20260831212059 69 302 1.0 3.0 0.00 0.00 0.00 81 1018.9
20260831211559 69 302 2.0 3.0 0.00 0.00 0.00 81 1018.9
20260831211058 70 301 2.0 3.0 0.00 0.00 0.00 80 1018.7
20260831210558 70 294 2.0 3.0 0.00 0.00 0.00 80 1018.9
20260831205559 70 321 1.0 4.0 0.00 0.00 0.00 80 1019.0
20260831205100 70 320 2.0 4.0 0.00 0.00 0.00 79 1019.0
20260831204604 70 295 1.0 3.0 0.00 0.00 0.00 79 1019.1
20260831204100 70 0 1.0 3.0 0.00 0.00 0.00 78 1018.9
20260831203559 70 299 0.0 3.0 0.00 0.00 0.00 78 1018.8
20260831203134 71 0 1.0 3.0 0.00 0.00 0.00 78 1019.1
20260831202559 71 313 0.0 2.0 0.00 0.00 0.00 77 1019.1
20260831202059 71 0 0.0 5.0 0.00 0.00 0.00 76 1019.2
20260831201606 72 319 0.0 5.0 0.00 0.00 0.00 73 1019.4
20260831201059 71 294 1.0 5.0 0.00 0.00 0.00 77 1019.3
20260831200601 72 336 1.0 5.0 0.00 0.00 0.00 72 1019.4
20260831200104 73 0 0.0 6.0 0.00 0.00 0.00 71 1019.4
20260831195602 72 312 0.0 6.0 0.00 0.00 0.00 67 1019.5
20260831195059 72 189 0.0 3.0 0.00 0.00 0.00 74 1019.4
20260831194610 71 0 1.0 4.0 0.00 0.00 0.00 75 1019.4
20260831194100 71 0 0.0 4.0 0.00 0.00 0.00 74 1019.6
20260831193559 72 0 0.0 3.0 0.00 0.00 0.00 76 1019.6
20260831193102 72 0 1.0 4.0 0.00 0.00 0.00 75 1019.7
20260831192600 74 309 1.0 4.0 0.00 0.00 0.00 70 1019.6
20260831192059 74 347 1.0 4.0 0.00 0.00 0.00 71 1019.6
20260831191600 74 347 1.0 3.0 0.00 0.00 0.00 70 1019.6
20260831191059 72 0 0.0 2.0 0.00 0.00 0.00 76 1019.8
20260831190559 71 302 0.0 2.0 0.00 0.00 0.00 75 1019.8
20260831190139 72 319 1.0 2.0 0.00 0.00 0.00 75 1019.7
20260831185600 72 0 0.0 2.0 0.00 0.00 0.00 76 1019.8
20260831185106 72 322 0.0 3.0 0.00 0.00 0.00 75 1019.9
20260831184608 73 0 0.0 4.0 0.00 0.00 0.00 72 1020.0
20260831184058 75 338 0.0 4.0 0.00 0.00 0.00 65 1019.9
20260831183559 75 353 0.0 4.0 0.00 0.00 0.00 68 1019.9
20260831183107 75 330 0.0 4.0 0.00 0.00 0.00 62 1020.0
20260831182601 74 172 1.0 6.0 0.00 0.00 0.00 70 1020.1
20260831182102 75 108 2.0 7.0 0.00 0.00 0.00 66 1020.3
20260831181609 75 344 3.0 7.0 0.00 0.00 0.00 70 1020.3
20260831181059 74 1 2.0 7.0 0.00 0.00 0.00 73 1020.3
20260831180558 74 0 3.0 7.0 0.00 0.00 0.00 68 1020.3
20260831180127 74 15 3.0 6.0 0.00 0.00 0.00 71 1020.5
20260831175559 74 0 2.0 6.0 0.00 0.00 0.00 75 1020.4
20260831175059 74 91 1.0 4.0 0.00 0.00 0.00 72 1020.3
20260831174617 73 38 1.0 4.0 0.00 0.00 0.00 74 1020.4
20260831174059 72 0 2.0 5.0 0.00 0.00 0.00 77 1020.6
20260831173601 73 49 1.0 5.0 0.00 0.00 0.00 72 1020.5
20260831173115 72 0 0.0 3.0 0.00 0.00 0.00 74 1020.6
20260831172603 73 0 0.0 3.0 0.00 0.00 0.00 69 1020.6
20260831172058 73 319 0.0 3.0 0.00 0.00 0.00 69 1020.6
20260831171607 73 0 0.0 3.0 0.00 0.00 0.00 74 1020.8
20260831171059 73 0 1.0 4.0 0.00 0.00 0.00 69 1020.8
20260831170559 73 154 1.0 4.0 0.00 0.00 0.00 70 1020.7
20260831170120 73 58 1.0 4.0 0.00 0.00 0.00 72 1020.8
20260831165559 72 0 0.0 3.0 0.00 0.00 0.00 70 1020.8
20260831165059 72 12 0.0 3.0 0.00 0.00 0.00 77 1020.7
20260831164605 73 0 0.0 4.0 0.00 0.00 0.00 76 1020.8
20260831164059 73 143 0.0 5.0 0.00 0.00 0.00 74 1021.0
20260831163559 73 0 1.0 5.0 0.00 0.00 0.00 72 1021.0
20260831163105 73 129 1.0 5.0 0.00 0.00 0.00 72 1021.0
20260831162602 73 169 1.0 4.0 0.00 0.00 0.00 71 1021.1
20260831162058 73 168 1.0 4.0 0.00 0.00 0.00 75 1021.0
20260831161608 72 140 1.0 4.0 0.00 0.00 0.00 75 1021.1
20260831161059 71 0 1.0 3.0 0.00 0.00 0.00 77 1021.1
20260831160558 70 0 0.0 1.0 0.00 0.00 0.00 83 1021.2
20260831160131 70 295 0.0 3.0 0.00 0.00 0.00 81 1021.3
20260831155558 70 0 0.0 3.0 0.00 0.00 0.00 82 1021.3
20260831155100 70 0 1.0 3.0 0.00 0.00 0.00 80 1021.3
20260831154624 71 41 0.0 3.0 0.00 0.00 0.00 80 1021.4
20260831154101 71 0 0.0 3.0 0.00 0.00 0.00 76 1021.4
20260831153558 72 0 1.0 3.0 0.00 0.00 0.00 72 1021.4
20260831153131 72 96 0.0 3.0 0.00 0.00 0.00 72 1021.6
20260831152600 72 49 1.0 6.0 0.00 0.00 0.00 72 1021.6
20260831152101 71 0 1.0 6.0 0.00 0.00 0.00 76 1021.5
20260831151602 71 200 3.0 6.0 0.00 0.00 0.00 76 1021.5
20260831151100 71 162 0.0 4.0 0.00 0.00 0.00 77 1021.5
20260831150600 71 0 1.0 4.0 0.00 0.00 0.00 78 1021.4
20260831145559 71 44 0.0 4.0 0.00 0.00 0.00 78 1021.4
20260831145059 71 72 1.0 4.0 0.00 0.00 0.00 80 1021.3
20260831144608 70 157 2.0 4.0 0.00 0.00 0.00 78 1021.4
20260831144059 70 179 0.0 4.0 0.00 0.00 0.00 79 1021.5
20260831143559 70 81 0.0 4.0 0.00 0.00 0.00 80 1021.5
20260831143104 69 0 1.0 4.0 0.00 0.00 0.00 81 1021.5
20260831142559 69 88 0.0 4.0 0.00 0.00 0.00 81 1021.5
20260831142058 69 146 1.0 4.0 0.00 0.00 0.00 81 1021.7
20260831141605 69 0 0.0 4.0 0.00 0.00 0.00 84 1021.6
20260831141058 68 0 1.0 4.0 0.00 0.00 0.00 85 1021.7
20260831140600 68 42 1.0 4.0 0.00 0.00 0.00 83 1021.6
20260831135559 68 0 1.0 4.0 0.00 0.00 0.00 83 1021.7
20260831135059 68 115 1.0 4.0 0.00 0.00 0.00 84 1021.7
20260831134608 67 78 0.0 4.0 0.00 0.00 0.00 84 1021.7
20260831134101 67 44 1.0 4.0 0.00 0.00 0.00 84 1021.6
20260831133602 67 0 0.0 4.0 0.00 0.00 0.00 86 1021.6
20260831133101 66 0 2.0 6.0 0.00 0.00 0.00 86 1021.6
20260831132559 66 131 1.0 6.0 0.00 0.00 0.00 89 1021.6